Wind_Speed
12 13 13 13 13 13 13 14 15 16 18 19 19 19 19 18 18 17 18 18 18 18 18 17 17 17 18 19 19 18 18 17 17 17 17 17 17 17 17 17 17 18 19 19 18 17 17 18 18 19 19 20 21 22 23 24 24 25 26 27 29 30 31 32 32 33 34 34 34 35 35 35 36 36 37 38 38 38 38 38 38 37 37 36 36
13 13 13 13 13 13 13 14 15 16 17 19 19 19 19 18 18 18 18 18 18 18 18 18 18 19 20 20 19 18 17 17 17 17 18 18 18 17 17 17 18 19 19 19 17 17 17 18 19 19 20 20 22 23 24 24 25 26 27 29 30 31 32 33 34 34 35 35 36 36 37 37 38 38 38 39 40 40 40 40 40 39 39 38 38
13 14 14 13 12 12 13 13 14 16 17 18 19 19 19 18 18 18 19 19 19 19 18 18 18 19 20 20 20 18 17 17 17 17 18 18 18 17 17 17 19 20 19 18 17 17 18 18 19 20 20 21 22 23 24 25 26 27 28 30 31 33 34 34 35 35 36 36 37 38 38 39 39 39 39 39 40 41 41 41 41 41 41 40 40
13 13 13 13 12 12 12 13 14 15 17 18 19 20 19 18 18 18 19 20 20 19 19 18 18 19 20 20 20 19 19 19 17 17 19 19 18 16 16 18 19 19 18 17 17 18 18 19 20 20 21 22 23 24 25 26 27 29 30 31 33 34 34 35 35 36 37 38 39 39 40 40 40 40 39 39 40 40 41 41 41 41 41 40 40
13 13 13 13 12 12 12 13 14 15 16 18 19 20 19 19 18 19 19 20 20 20 20 19 19 20 20 20 20 21 21 20 19 19 19 19 17 16 16 18 19 19 18 17 18 18 19 20 21 22 23 23 24 26 27 28 29 30 31 33 34 35 35 36 36 37 38 39 40 41 41 41 41 41 40 40 40 41 42 41 41 40 40 40 40
13 13 14 13 12 12 13 14 14 14 15 18 19 20 20 19 19 19 20 20 21 21 20 20 20 20 21 21 21 22 22 21 20 20 20 19 17 17 17 18 18 18 17 18 18 19 20 21 22 23 24 25 26 27 28 29 30 31 32 34 35 36 36 37 38 39 40 40 41 42 42 41 41 41 41 41 41 41 42 42 41 41 41 40 40
13 14 14 14 13 13 14 14 14 14 15 17 19 20 20 20 20 20 20 21 21 21 21 21 21 21 21 22 22 22 22 21 21 20 20 18 17 17 17 17 16 17 17 18 19 20 21 22 23 24 25 26 27 28 29 30 31 32 33 35 36 37 37 37 38 39 40 41 41 42 42 42 42 42 42 43 43 43 43 42 42 41 40 39 38
14 14 15 15 14 14 14 14 14 13 14 16 19 20 20 21 21 21 21 21 21 22 22 22 22 22 22 23 23 22 22 21 21 20 19 18 17 17 17 16 16 17 18 19 20 21 22 24 25 26 27 27 28 29 30 31 32 33 35 36 37 38 38 38 39 40 41 41 41 42 42 41 42 42 43 43 44 44 43 43 42 41 39 37 36
15 15 16 16 15 15 15 14 14 13 14 16 17 19 20 21 22 22 22 22 22 22 22 23 23 23 24 24 23 22 21 20 20 20 19 18 17 16 16 17 17 18 19 20 21 23 24 25 26 27 28 28 29 30 31 32 33 35 36 37 38 38 38 39 39 40 41 42 42 42 42 42 43 43 43 43 43 43 43 41 40 39 37 34 33
15 16 17 17 16 16 16 15 15 14 14 15 16 18 19 21 22 23 22 22 22 22 23 23 24 24 25 24 24 22 21 20 20 19 19 17 16 16 16 17 18 20 21 22 23 24 25 26 27 28 29 29 30 31 32 34 35 35 36 38 38 39 39 39 40 41 42 42 42 42 43 43 44 44 44 44 43 42 41 40 38 36 34 32 31
16 17 18 18 17 17 17 17 16 15 15 16 16 17 19 21 22 23 23 23 23 22 23 23 24 24 25 24 23 22 20 20 19 19 18 17 16 15 16 17 19 20 22 23 24 25 26 27 28 29 29 30 31 32 33 34 35 36 37 38 38 39 39 40 41 42 42 43 43 43 44 45 45 44 44 44 43 41 39 38 35 33 32 31 31
16 17 19 19 19 19 18 18 18 17 16 16 16 17 19 20 22 23 24 24 23 23 23 23 23 24 24 24 23 22 20 19 19 19 17 16 16 15 16 18 19 21 23 24 26 27 27 28 29 29 30 31 31 33 34 35 36 37 38 38 38 39 39 41 42 43 43 43 44 45 46 46 45 44 44 43 41 39 37 35 33 32 31 31 32
17 18 19 20 21 20 20 19 19 18 17 16 17 18 19 20 22 23 24 24 23 23 23 23 23 23 23 23 22 22 21 20 19 18 17 16 16 16 17 18 20 22 24 25 26 27 28 29 30 30 30 31 32 33 34 35 36 38 38 38 38 39 41 42 43 44 44 44 46 47 47 46 45 44 42 41 39 38 36 34 33 32 32 32 33
19 20 21 22 22 22 21 20 20 19 18 17 17 18 19 20 22 23 24 24 24 23 23 23 23 23 22 22 22 21 21 20 19 18 18 17 17 17 18 19 21 23 24 25 27 28 29 30 30 31 31 31 32 33 35 36 37 38 38 38 39 40 42 43 44 44 45 46 47 47 47 46 45 43 41 39 38 36 35 34 33 33 33 34 34
20 22 23 23 24 24 23 22 20 20 20 18 18 18 19 20 22 23 24 24 23 23 23 24 24 23 22 22 21 21 21 20 19 18 18 18 18 19 19 20 22 23 25 26 27 28 29 30 31 31 31 31 32 34 36 37 38 38 38 38 40 41 43 43 44 44 46 47 48 47 47 46 44 41 39 38 37 36 35 34 34 33 34 35 36
22 23 24 25 25 25 24 23 21 21 21 20 19 18 19 20 21 23 24 24 23 23 24 24 24 23 23 22 21 21 21 20 19 19 19 19 19 19 20 21 23 24 24 25 27 28 29 30 31 31 31 32 33 35 37 37 37 37 38 39 41 42 43 43 44 45 47 48 48 47 46 45 42 40 38 37 36 36 35 35 35 35 35 36 37
23 25 26 26 26 26 25 23 22 21 21 21 20 19 19 20 21 22 23 23 24 23 24 24 24 23 22 22 21 21 21 20 20 19 19 19 20 20 21 22 23 23 24 26 27 29 30 30 31 31 32 33 35 36 37 37 37 37 38 40 41 42 43 43 44 46 47 47 47 46 45 43 41 39 37 37 36 36 36 36 36 36 36 36 37
25 26 27 27 27 26 25 23 22 21 21 21 20 19 19 20 21 21 22 23 24 24 24 23 23 22 22 21 21 21 21 21 20 19 19 20 20 21 21 22 22 23 25 26 27 29 30 31 31 32 33 34 36 36 36 36 37 38 40 41 41 42 42 43 44 46 47 47 46 45 44 42 39 38 37 37 37 37 37 36 36 36 37 37 37
26 27 28 28 28 27 24 22 21 21 21 20 18 18 19 20 20 20 21 23 24 24 24 23 22 21 21 21 21 22 21 21 21 20 19 20 21 21 21 22 23 24 25 27 28 29 31 32 32 33 34 35 35 36 36 36 38 39 41 41 42 42 42 43 45 46 46 46 46 44 42 40 39 38 37 37 38 37 37 37 36 36 37 37 38
27 28 28 28 28 27 24 22 21 21 20 18 17 18 19 19 20 20 21 22 23 24 24 23 22 21 20 21 21 21 21 21 21 21 20 20 21 21 22 22 23 25 26 28 29 30 32 33 33 34 35 35 35 36 36 37 39 40 41 42 42 42 42 44 45 46 46 45 44 42 40 39 38 38 38 38 38 38 37 37 37 37 38 38 38
28 28 28 28 28 26 23 21 21 20 18 17 17 18 19 19 19 20 21 22 23 23 23 23 22 21 21 21 21 22 22 21 21 21 21 21 20 20 22 23 23 25 27 28 30 31 33 34 34 35 35 35 36 36 37 38 40 40 41 42 42 42 43 45 46 46 45 44 43 40 39 38 38 38 38 38 38 38 37 38 38 38 38 38 38
28 28 28 28 28 25 22 20 20 20 18 18 18 18 19 19 19 20 21 21 22 23 23 22 22 21 21 22 22 22 22 21 21 21 20 21 21 20 20 23 24 25 28 29 31 32 33 34 35 35 35 36 36 37 38 39 40 41 41 42 42 42 44 45 46 46 45 43 41 39 38 37 38 38 38 38 38 38 38 38 39 39 39 39 38
29 29 29 28 27 24 22 21 21 20 19 18 18 18 19 19 19 20 20 21 22 22 22 22 21 22 22 23 23 23 22 22 21 21 20 20 22 22 21 23 24 26 28 30 31 33 34 34 35 35 35 36 37 38 38 39 40 41 41 42 42 43 44 46 46 45 43 41 39 38 37 37 38 38 38 38 38 39 39 39 40 39 39 38 38
29 29 29 27 26 24 22 21 22 21 19 18 18 18 19 19 19 20 20 21 21 22 22 21 21 22 23 24 24 24 23 22 22 21 21 21 22 23 24 24 25 26 29 31 32 33 34 34 34 34 35 37 37 38 39 39 40 41 41 42 42 43 45 46 45 44 42 40 38 37 37 38 38 38 38 38 39 39 40 40 40 39 39 38 38
29 29 28 27 26 24 23 22 22 21 19 18 18 19 19 19 19 19 20 21 21 21 21 21 22 23 24 25 25 24 23 23 23 22 21 22 23 24 25 26 27 28 30 32 33 33 33 33 34 35 36 37 38 39 39 39 40 40 41 41 42 44 45 45 45 43 41 40 38 38 38 39 39 39 39 39 39 40 40 41 40 40 39 38 38
29 29 28 26 25 24 23 23 23 22 20 19 20 19 19 19 19 19 20 21 21 21 21 21 22 23 24 25 25 25 24 23 23 22 22 22 24 25 26 27 29 30 31 33 33 33 33 34 35 36 37 38 39 39 40 39 39 40 41 41 42 44 45 45 44 42 40 39 39 39 40 40 40 40 40 40 40 41 41 41 41 40 39 38 38
30 30 27 26 26 25 24 23 23 23 22 21 21 20 19 18 18 19 20 20 20 20 21 21 22 23 24 25 25 25 24 24 23 22 22 23 25 26 27 28 30 31 32 33 33 34 34 34 35 37 38 38 39 40 40 40 40 40 41 42 42 44 45 45 44 41 40 39 39 40 40 41 41 41 41 41 41 41 42 42 42 41 40 39 39
30 30 27 26 27 26 25 23 23 22 22 21 21 21 20 18 18 18 19 20 20 20 21 21 22 23 24 25 25 24 24 24 23 22 23 24 25 27 28 29 30 31 32 33 34 34 34 34 35 37 38 39 40 40 40 40 40 40 41 42 43 44 45 44 43 41 40 40 40 40 41 41 42 42 42 42 42 42 43 43 43 42 41 40 39
30 30 28 26 27 27 26 24 23 22 22 22 21 21 20 18 17 18 19 20 20 20 21 21 22 23 24 25 24 24 24 23 23 23 24 25 26 27 28 29 30 31 32 33 33 34 34 34 35 37 38 39 40 40 40 40 40 41 41 42 44 45 45 44 42 40 40 40 41 41 42 42 42 43 43 43 43 44 43 43 43 42 41 40 40
31 30 28 26 27 28 27 25 23 23 22 22 22 21 19 18 17 18 19 20 20 21 21 21 22 23 23 24 24 24 23 23 23 23 24 25 26 27 28 29 30 32 33 33 33 33 34 35 35 37 39 40 40 40 40 40 40 41 42 43 44 45 44 43 41 40 40 41 41 42 42 43 43 43 44 44 45 45 44 44 43 42 41 40 40
30 30 28 26 27 29 29 26 24 23 23 22 22 21 19 18 18 18 19 20 20 21 21 22 22 23 23 23 23 23 23 23 23 23 24 25 26 27 28 29 30 31 33 33 32 32 33 35 37 38 40 41 41 41 41 40 40 41 42 43 44 44 44 43 41 40 41 41 42 42 43 43 44 44 45 45 46 46 45 44 43 42 41 40 40
30 29 28 27 28 30 30 27 24 23 23 22 22 21 19 19 18 18 19 20 20 21 21 22 22 23 23 23 22 23 23 23 23 24 24 25 26 27 28 29 31 31 32 33 32 32 34 36 38 40 41 42 42 41 41 40 40 41 42 42 43 44 43 42 40 40 41 41 42 42 43 44 44 45 45 46 46 46 44 43 43 42 41 40 40
31 29 29 28 28 31 31 28 24 24 24 23 22 21 19 19 18 18 19 20 20 21 21 22 22 23 23 23 22 22 23 23 23 24 24 25 26 27 28 29 31 31 32 32 32 34 36 37 39 40 42 42 41 40 39 39 40 41 41 42 43 43 43 42 40 39 40 41 42 43 43 44 44 45 46 47 46 44 43 43 42 41 41 40 40
32 30 30 29 29 31 33 29 25 24 24 23 22 21 20 19 18 18 19 20 20 21 21 22 23 23 23 23 22 22 22 23 23 24 24 25 26 27 28 30 31 31 31 31 32 35 37 38 39 40 41 41 39 38 38 39 40 41 41 42 43 43 42 41 40 40 41 42 42 43 44 44 44 45 46 46 45 44 43 43 42 41 41 40 41
34 31 30 31 30 32 34 31 26 24 24 24 22 20 19 19 18 18 19 20 20 20 21 22 23 23 23 23 22 22 22 23 23 24 24 25 27 28 28 29 30 30 30 31 34 35 37 39 40 41 41 38 35 36 38 39 40 41 42 43 43 42 41 40 40 40 41 42 43 44 44 44 44 45 45 45 45 44 44 42 42 42 41 41 41
37 32 31 32 31 32 35 33 28 25 24 24 22 20 19 19 19 19 19 19 20 20 21 22 23 23 23 23 23 22 23 23 23 24 25 26 28 28 28 28 29 29 30 33 35 36 38 40 41 41 39 36 34 36 38 39 40 41 42 43 42 41 40 40 40 41 42 43 45 45 44 44 44 44 45 45 44 43 43 42 42 42 41 41 42
38 34 32 33 31 32 35 34 29 25 24 24 22 20 19 19 19 20 19 19 20 20 22 22 23 24 24 24 23 23 23 24 24 25 25 27 28 29 28 28 29 31 32 34 37 39 40 41 41 41 38 35 35 37 39 40 40 41 42 42 42 41 40 40 41 42 43 44 45 45 45 44 43 43 43 44 43 43 43 43 42 41 41 42 42
39 35 33 34 32 33 36 35 30 26 24 24 23 20 19 19 20 20 20 19 20 21 22 23 23 24 24 24 24 24 24 24 25 25 26 27 29 29 28 29 30 31 32 35 38 40 41 42 41 40 38 36 37 39 40 40 40 41 42 42 41 40 40 40 42 43 44 45 44 44 44 44 43 42 43 44 44 45 44 43 41 40 41 42 42
38 35 34 34 33 34 36 35 31 26 25 25 23 21 20 20 20 21 20 20 20 21 22 23 24 24 24 25 24 24 25 25 26 26 27 28 29 29 29 29 29 30 33 37 39 41 42 42 41 39 37 37 38 40 40 40 39 40 41 41 40 40 40 41 43 44 45 44 44 43 43 43 42 42 43 44 44 44 44 43 41 40 40 41 42
35 34 34 34 34 35 36 35 31 27 25 25 23 22 21 20 20 21 21 20 21 22 23 23 24 24 25 25 25 25 25 26 26 27 27 28 29 30 30 29 30 32 35 38 40 41 42 42 40 38 37 37 39 40 39 39 39 40 41 41 39 39 40 41 43 44 44 43 43 42 42 42 42 42 42 42 43 44 44 43 41 40 40 41 42
34 34 35 35 35 36 36 36 32 27 26 25 24 23 22 20 20 21 21 21 22 23 24 24 24 25 25 25 25 25 25 25 26 27 27 28 29 29 29 30 31 34 36 39 40 41 41 40 38 37 36 38 39 39 39 39 39 41 41 40 39 39 40 41 42 43 42 42 42 41 41 41 41 41 41 42 43 44 45 44 43 42 41 42 42
34 35 36 36 36 36 36 36 32 28 27 26 25 23 22 21 21 22 22 22 23 24 25 25 25 25 25 25 25 25 25 25 26 27 27 28 29 29 30 31 33 35 38 39 40 40 39 38 36 36 37 38 39 39 38 38 40 41 41 40 39 39 40 41 42 42 41 40 40 40 40 40 40 41 42 43 43 44 44 45 44 43 42 42 42
35 35 36 37 37 37 37 36 33 29 27 27 26 24 23 22 23 23 23 23 24 25 26 26 26 26 26 26 25 25 25 25 26 27 27 28 29 29 31 33 35 36 38 39 39 38 37 35 35 35 37 37 38 38 38 38 40 41 41 40 40 40 41 42 42 42 40 39 38 38 38 38 39 41 43 43 44 43 44 44 44 44 43 42 42
35 35 37 38 38 37 37 37 34 30 28 28 27 25 24 24 23 23 24 25 25 26 27 28 27 27 27 27 26 26 25 26 27 27 27 28 29 30 32 34 36 37 38 39 38 36 35 34 34 35 36 37 37 37 37 38 40 41 41 41 40 41 42 42 42 42 40 39 37 36 35 36 39 41 43 44 43 43 43 44 44 44 43 42 42
36 36 38 38 38 37 37 37 35 31 29 29 28 27 26 25 24 24 25 26 26 27 28 29 29 29 29 28 28 27 26 27 27 26 26 28 29 31 33 35 36 37 38 38 37 35 34 35 35 36 36 36 36 36 37 38 39 40 41 41 41 42 42 42 42 41 40 38 37 35 34 36 38 41 43 43 42 42 42 43 44 44 43 42 42
36 36 38 39 39 38 38 38 36 33 30 30 30 29 27 25 25 25 26 27 28 28 29 31 31 31 31 30 30 29 28 27 27 26 27 28 30 32 34 36 37 37 37 37 36 34 34 35 36 36 36 36 35 36 36 38 39 40 40 41 41 42 43 43 42 41 40 37 35 34 34 35 38 41 42 42 41 41 41 42 43 43 42 42 42
37 37 39 40 40 39 39 39 37 34 32 31 32 30 28 26 25 26 28 29 29 29 31 32 33 33 33 32 31 30 28 27 27 26 27 29 31 33 35 36 37 37 36 36 34 34 34 35 36 36 35 35 35 35 36 37 38 39 40 40 42 43 43 43 42 41 40 37 34 33 34 36 38 40 40 41 40 39 39 40 42 43 42 42 43
39 38 39 41 41 40 39 39 37 34 32 33 33 31 30 27 27 28 30 31 31 31 32 34 35 35 34 33 32 31 29 28 27 27 28 30 32 33 34 35 36 36 35 34 33 34 35 36 36 36 35 35 35 35 36 37 37 38 39 40 41 42 43 42 42 41 40 37 34 34 35 37 38 39 40 40 39 38 37 39 41 42 41 41 43
40 38 39 42 42 42 40 39 37 35 33 33 34 33 31 29 28 29 31 31 31 32 33 34 35 35 35 34 33 31 30 28 27 27 28 30 32 33 34 35 35 34 33 32 32 33 35 36 36 36 35 34 34 35 35 36 37 38 38 40 41 42 42 42 41 40 39 37 35 35 36 37 38 40 40 39 39 38 37 39 41 42 41 41 43
40 39 41 42 43 42 41 39 37 35 34 35 35 34 32 30 30 31 32 32 32 33 33 34 35 35 35 34 33 32 30 28 26 26 28 30 32 33 33 34 33 32 31 31 32 33 35 36 36 36 34 34 34 34 35 36 37 37 38 39 41 42 42 41 40 39 38 36 35 35 37 38 39 40 40 39 38 37 37 39 41 42 41 41 43
40 39 41 42 42 41 41 40 37 35 35 36 36 34 32 32 33 34 34 34 34 34 34 34 34 34 35 34 33 33 30 27 26 27 28 30 32 32 32 33 32 31 30 31 32 34 35 36 36 35 34 33 33 34 34 36 37 37 37 39 41 41 41 40 39 38 38 37 35 36 37 38 39 41 40 39 37 36 36 39 40 41 40 41 44
Wind_Direction
321 322 322 319 313 308 306 305 306 307 306 306 305 303 301 298 294 291 289 289 292 294 295 295 296 299 301 302 300 297 294 290 283 276 276 284 292 293 289 287 287 288 289 291 293 295 299 303 307 311 313 312 311 311 311 311 312 314 316 319 320 322 322 323 323 323 323 323 322 321 320 320 320 320 320 320 318 317 316 315 314 313 312 310 308
317 319 317 315 311 307 305 304 306 307 307 306 304 303 300 297 294 291 290 290 291 292 293 294 296 299 301 301 298 295 291 286 281 276 278 286 291 289 285 284 285 285 287 289 291 295 299 304 308 311 311 310 309 309 309 310 312 315 318 320 322 323 324 324 325 325 325 324 323 322 321 321 321 321 321 320 318 317 316 315 315 314 313 311 309
315 316 315 312 309 305 304 304 306 308 307 305 303 301 298 296 294 292 291 291 292 292 293 293 295 297 299 298 295 291 287 284 281 278 280 286 288 285 283 282 283 284 285 288 292 297 301 306 309 310 309 308 307 307 308 310 312 315 318 321 323 324 326 326 326 326 326 325 324 323 322 322 322 322 321 320 318 317 317 316 316 315 314 313 311
316 316 314 312 309 305 303 304 306 308 307 305 301 299 296 294 293 292 292 292 293 293 293 294 294 295 296 295 292 289 285 284 284 282 284 287 286 285 283 283 283 285 286 289 294 299 304 308 310 310 308 306 306 307 309 312 314 316 318 320 323 325 326 326 326 326 325 325 324 323 323 322 322 321 320 319 318 317 317 316 316 316 315 313 311
319 317 315 312 309 303 302 303 306 308 306 303 299 296 294 293 293 293 293 293 293 293 294 295 295 295 295 293 290 288 287 287 286 285 287 288 287 286 284 284 285 286 289 293 298 302 306 310 311 309 307 306 307 309 311 313 314 316 318 320 323 325 325 325 326 325 325 324 323 322 322 322 322 321 320 319 318 317 317 316 316 316 315 313 311
321 320 317 313 309 302 300 302 305 307 304 301 297 295 293 293 293 293 293 293 293 293 294 295 296 296 295 292 289 288 288 290 290 289 289 289 288 286 283 283 286 289 293 297 300 303 307 311 311 309 307 307 308 309 310 311 313 315 317 320 322 323 323 324 325 325 325 324 323 322 322 322 322 321 320 319 318 318 317 317 317 316 314 312 309
321 321 318 314 308 302 299 301 304 305 302 299 295 293 293 293 295 295 294 293 293 294 295 296 297 297 295 292 289 289 290 291 291 290 289 289 287 285 284 286 288 292 296 298 301 305 309 311 310 308 308 307 307 308 309 309 311 313 316 318 320 320 322 324 325 324 323 322 322 322 322 322 321 320 319 319 318 318 318 317 317 315 313 310 308
318 320 319 315 309 303 299 300 302 302 300 296 293 292 292 295 296 297 296 295 295 295 296 297 298 297 296 294 292 291 291 292 291 290 289 288 286 286 288 292 294 296 298 300 304 308 310 310 309 308 307 306 305 306 307 309 310 312 315 317 318 319 321 323 323 322 321 321 321 322 322 321 321 320 320 319 319 318 318 317 316 314 312 309 307
316 317 317 316 311 305 300 299 300 299 297 292 290 289 291 295 297 298 298 297 297 296 297 297 297 297 296 295 294 293 293 293 291 290 289 288 287 289 293 296 298 299 301 304 308 310 310 308 307 306 305 304 304 305 306 308 310 312 315 316 316 319 321 322 321 321 321 321 321 321 321 321 320 320 320 319 319 318 318 316 314 312 311 309 307
314 315 315 316 314 307 302 298 296 295 293 289 287 287 289 294 297 299 299 299 298 297 297 297 296 296 296 296 295 294 295 294 292 292 290 288 289 292 295 297 299 302 305 308 309 308 307 306 306 305 303 303 303 305 307 308 310 313 315 315 317 319 320 321 320 320 321 321 321 321 321 321 321 320 320 319 319 318 317 315 313 311 309 308 307
312 312 313 316 315 309 302 297 293 292 291 288 286 285 288 292 297 299 300 299 298 297 297 296 296 296 296 296 294 294 294 294 293 293 291 289 289 292 294 297 301 304 306 307 306 305 305 305 304 304 303 303 304 306 308 309 311 313 314 316 318 319 320 320 320 321 321 321 321 321 321 321 321 321 320 319 318 317 315 314 312 311 309 307 306
311 310 312 314 313 309 304 297 293 291 289 287 285 285 288 292 296 299 300 299 298 297 297 296 296 295 295 294 293 293 294 293 294 294 292 289 289 292 295 298 302 304 305 304 303 304 304 304 304 303 302 303 305 307 309 310 312 314 315 317 319 319 319 320 321 321 321 320 321 322 322 321 321 321 320 319 317 316 315 314 313 311 309 307 306
310 308 310 312 311 308 305 299 295 291 288 286 286 286 289 292 296 298 299 299 298 298 297 296 295 293 293 292 291 291 292 293 295 295 292 289 290 292 296 299 302 302 301 301 302 303 304 304 303 303 302 304 307 309 310 311 313 315 317 318 319 319 320 321 321 320 320 321 322 322 322 321 321 320 319 318 317 316 316 315 313 310 308 307 306
309 307 308 309 309 307 305 302 297 292 290 288 287 288 290 293 295 297 299 298 298 298 297 296 294 293 292 291 289 290 290 292 296 295 291 289 291 294 297 300 300 299 298 300 302 304 304 304 303 303 304 306 309 309 310 311 314 316 317 318 319 320 321 321 320 319 320 321 322 322 321 321 321 320 319 317 317 317 316 315 312 310 308 308 307
310 307 307 307 307 306 306 304 300 295 293 291 289 289 290 293 295 297 298 297 297 298 298 296 294 293 292 290 288 288 289 291 293 292 290 290 293 296 299 299 297 296 298 301 303 304 304 304 303 304 306 309 309 309 310 313 315 317 317 319 320 321 322 321 319 319 320 322 322 322 321 321 321 320 319 318 317 317 316 314 312 310 309 309 309
308 307 306 305 304 305 304 304 301 297 294 293 290 288 289 292 294 296 297 297 297 298 297 296 294 293 291 288 287 287 288 290 290 289 289 292 295 298 298 296 295 296 299 302 304 304 303 304 305 306 308 309 309 309 311 314 316 317 318 320 321 322 321 319 318 320 321 322 322 321 321 321 320 320 319 319 318 317 315 313 312 311 310 310 310
304 305 306 305 302 302 302 302 300 296 294 293 290 287 288 291 293 295 296 296 297 297 297 295 293 291 289 287 286 286 288 288 287 287 289 292 295 297 296 294 295 297 300 303 304 304 304 305 306 307 308 309 309 311 313 315 316 318 319 321 321 321 319 318 318 320 322 322 321 321 321 321 321 320 320 319 318 316 314 313 311 310 310 311 312
300 302 305 305 300 299 300 301 299 296 294 292 289 286 287 290 292 294 294 295 296 296 295 294 291 289 286 285 285 286 286 286 286 286 288 292 294 294 294 294 296 299 302 303 304 305 306 306 306 307 309 309 311 313 315 317 318 319 320 321 321 319 317 317 319 321 322 322 322 321 321 321 322 321 320 319 317 315 313 311 311 311 312 312 312
299 300 304 303 298 297 299 300 299 299 296 292 287 286 286 289 291 292 292 293 294 295 295 293 289 286 283 282 283 284 285 285 285 286 288 290 292 293 294 296 299 302 303 304 306 306 306 306 307 309 310 311 313 315 317 317 318 319 320 320 320 318 317 318 320 322 323 323 322 322 322 322 323 322 320 318 316 314 312 311 311 312 312 311 311
298 299 301 300 296 295 298 299 300 300 296 289 286 286 286 288 290 290 290 291 293 295 294 292 288 285 282 279 280 281 282 283 283 286 288 288 290 292 296 300 303 304 305 306 306 306 305 306 308 310 312 313 315 316 317 317 318 319 319 320 318 317 317 319 321 323 324 323 322 322 322 323 323 321 319 317 315 313 312 311 312 311 311 311 311
298 298 299 298 294 294 297 299 299 298 291 284 284 286 286 287 289 289 290 291 293 295 294 291 288 285 282 280 279 279 280 281 282 285 287 288 289 292 296 302 305 306 306 306 306 306 306 308 310 311 312 314 316 316 316 317 317 319 319 319 318 317 318 319 322 324 324 323 322 322 323 323 322 320 318 316 315 313 312 312 311 311 311 312 313
297 296 296 295 292 293 296 298 296 292 285 280 283 286 286 287 289 289 290 292 295 295 293 290 288 285 282 281 280 280 280 280 281 284 285 288 292 296 299 303 307 308 307 306 307 307 308 310 311 311 312 314 315 315 316 317 318 319 319 319 318 318 318 320 323 324 323 322 321 322 322 322 320 318 317 316 314 313 312 312 312 313 313 314 315
294 293 294 293 291 291 294 294 291 287 282 279 281 284 285 287 289 289 290 294 296 295 292 290 287 285 283 283 282 281 280 280 281 283 285 288 293 299 303 305 307 308 307 307 308 308 310 311 311 311 312 314 315 315 316 317 317 319 319 319 319 318 319 320 322 323 322 321 321 321 321 320 319 318 317 316 314 314 313 314 314 315 315 316 316
291 291 292 291 289 290 291 290 288 286 281 279 281 283 285 286 288 289 292 295 296 295 293 291 288 286 284 284 283 282 281 281 282 284 286 289 293 298 303 306 307 308 307 307 308 309 311 312 311 312 313 314 314 315 316 317 317 318 320 320 319 318 319 320 322 322 322 321 320 320 319 318 318 318 317 316 315 315 316 316 316 316 316 316 317
288 288 289 289 287 287 288 287 287 284 279 278 281 283 284 285 288 290 293 295 296 295 293 292 290 287 285 285 285 284 283 283 284 285 286 289 293 296 301 305 308 308 307 307 309 310 312 312 312 313 314 314 314 314 315 316 316 318 319 319 318 318 319 320 322 322 321 320 319 318 317 317 317 317 317 317 317 317 317 316 316 316 316 316 317
284 285 287 286 284 283 284 286 286 282 277 277 281 282 283 285 288 291 293 294 295 295 295 293 291 288 286 286 285 284 284 284 284 285 286 289 292 296 300 304 306 308 307 308 310 311 311 311 312 314 314 314 314 314 314 315 315 317 319 319 318 318 319 321 322 321 320 319 319 317 316 316 316 317 318 318 318 317 316 316 315 316 316 316 316
280 281 284 283 280 280 283 286 286 283 278 275 277 280 281 283 286 289 292 293 294 294 295 294 292 290 287 286 285 285 285 285 286 286 286 289 292 296 300 304 305 307 307 308 310 310 310 311 312 314 314 314 313 313 313 314 314 317 319 319 318 318 320 321 321 320 319 319 318 316 315 315 316 317 317 317 317 316 315 315 315 315 316 316 316
277 278 281 280 278 279 282 285 286 283 278 275 275 278 280 282 285 288 291 292 294 294 295 295 294 291 288 286 285 285 286 287 288 288 288 290 293 297 301 303 305 306 307 308 309 309 310 311 313 314 315 314 313 312 312 313 314 316 318 318 318 319 320 321 320 319 318 318 317 316 315 315 316 316 316 316 316 315 315 315 315 315 316 316 316
275 275 279 279 277 277 280 283 284 281 275 272 273 275 279 283 285 287 289 291 293 295 296 296 295 293 290 287 286 285 286 287 288 288 289 292 295 299 301 303 305 305 307 307 308 309 310 313 315 316 315 314 312 312 312 313 313 315 317 318 318 319 319 320 320 318 318 317 317 316 315 315 315 316 316 316 315 314 314 314 315 315 316 316 316
273 274 277 277 276 276 278 281 282 279 273 270 271 275 280 283 285 286 288 290 292 294 295 296 297 296 293 289 286 285 284 286 287 288 291 294 297 299 301 303 304 305 306 306 307 309 311 315 318 317 316 315 313 312 312 313 313 315 317 318 318 318 319 320 319 318 318 317 316 316 315 315 316 316 316 315 314 314 314 314 315 315 316 316 316
271 272 276 276 273 273 276 279 281 279 273 270 271 275 280 282 283 285 286 288 291 292 294 296 298 298 296 291 286 283 282 283 285 288 291 294 297 299 301 302 304 305 305 305 306 310 313 316 319 319 318 316 314 312 312 312 313 314 316 317 318 318 319 320 319 318 318 317 317 316 316 316 316 316 315 314 313 313 314 314 315 315 316 317 317
270 271 274 274 271 271 274 277 281 279 274 270 271 275 279 281 281 283 284 287 289 291 293 297 300 299 297 292 286 282 281 282 285 288 291 294 297 298 300 302 304 304 304 304 306 312 316 318 320 320 319 317 314 312 311 312 313 314 316 317 318 319 320 319 319 318 318 318 318 317 317 317 317 316 315 314 314 314 314 315 316 316 317 317 316
268 268 272 273 269 269 272 276 279 277 273 270 271 274 277 278 280 281 282 285 287 290 293 296 299 299 297 292 287 283 282 283 285 288 291 294 296 299 301 303 304 304 303 303 307 314 318 319 320 320 318 316 313 312 313 313 314 315 316 318 319 320 320 319 319 319 319 319 319 319 318 318 317 316 315 315 315 315 315 316 317 317 317 317 316
267 267 271 271 268 268 270 274 277 275 271 268 269 272 275 277 278 279 280 283 285 288 291 294 297 298 297 293 288 284 283 284 286 289 291 294 298 301 303 305 305 304 303 304 309 315 317 318 319 319 317 315 313 314 315 314 314 316 318 319 319 320 320 319 319 320 321 321 321 320 319 318 317 316 316 316 317 317 317 318 318 319 318 317 317
267 268 272 271 266 265 269 272 274 273 269 266 267 270 273 276 277 277 279 281 284 287 289 292 295 297 298 295 289 286 285 285 287 289 293 297 300 303 305 306 305 305 305 305 309 314 317 318 319 319 316 313 313 315 315 315 316 317 318 319 320 320 320 320 321 322 322 322 322 320 319 318 317 317 317 318 318 318 319 320 320 320 318 317 319
267 269 272 270 264 263 267 270 272 271 267 265 266 268 271 274 275 276 278 281 284 286 287 290 294 297 298 295 291 287 285 286 288 291 296 300 303 304 305 305 305 306 307 307 311 315 317 318 320 319 315 312 313 316 316 316 316 316 318 320 320 320 321 321 322 323 323 323 322 321 320 320 319 319 319 319 319 320 321 322 321 320 318 319 320
267 270 271 268 262 261 264 268 270 269 265 263 265 267 270 273 275 276 278 281 284 285 286 289 293 296 298 296 292 288 286 288 290 295 299 302 303 304 304 305 307 308 307 309 314 317 318 319 320 318 314 311 313 317 317 316 315 317 319 320 321 321 322 322 323 324 324 324 323 323 322 322 321 320 320 320 320 322 323 323 322 319 319 320 321
267 269 268 265 260 259 261 265 268 267 263 262 263 266 270 273 275 277 279 282 283 284 285 287 291 294 296 295 292 289 288 290 293 297 300 301 302 303 304 305 308 309 309 311 315 317 317 319 319 316 313 312 314 316 316 315 315 317 320 321 322 322 322 323 324 325 325 325 325 324 323 323 322 322 322 322 323 324 325 324 321 319 320 321 323
266 266 264 262 259 257 259 263 266 266 262 261 262 265 269 272 275 278 280 281 282 283 283 285 288 292 294 294 291 289 289 291 294 298 300 300 301 303 303 305 308 311 311 313 315 316 317 319 317 315 313 312 314 315 314 314 316 318 320 321 322 322 322 323 325 326 327 327 326 325 324 324 324 324 324 325 325 325 325 324 321 320 321 322 323
263 262 261 260 258 256 258 261 265 265 261 259 261 263 267 272 277 279 279 278 279 280 282 283 286 289 291 292 291 290 290 293 296 298 299 301 302 303 304 306 310 313 314 315 316 316 317 317 316 314 312 313 314 314 313 314 316 319 320 321 322 322 323 324 325 327 328 328 328 327 325 325 325 326 326 326 327 327 326 324 321 321 321 323 324
261 261 260 258 257 256 257 260 263 263 259 258 259 262 267 273 277 278 277 276 277 278 280 281 283 286 289 290 290 291 292 294 296 298 300 302 303 303 305 308 312 315 316 316 315 315 316 316 314 313 313 313 313 313 313 314 316 318 319 320 321 322 323 325 326 328 328 328 328 327 326 325 326 327 327 327 327 327 326 324 321 321 323 325 327
259 260 259 258 257 257 257 258 262 262 258 256 258 261 266 272 275 277 277 276 276 276 277 279 281 284 287 288 290 291 294 296 297 298 301 302 302 303 306 310 314 315 315 314 314 315 315 314 314 314 313 313 313 313 314 314 316 317 319 320 321 322 324 326 327 328 329 328 327 326 326 326 326 327 327 327 327 327 326 323 322 323 325 327 327
258 259 259 258 257 256 256 257 260 260 256 254 256 260 264 269 274 276 277 276 274 275 276 278 280 282 285 286 289 291 294 296 297 299 301 301 302 304 308 311 313 313 313 313 314 314 314 313 314 314 313 313 312 313 313 314 315 317 319 320 321 323 326 327 328 329 330 329 328 327 327 327 327 326 327 327 328 327 325 323 322 323 325 327 328
258 258 259 258 257 256 255 256 258 259 256 253 255 258 261 267 273 277 278 276 274 274 275 276 278 280 283 285 287 290 293 295 297 299 300 299 301 305 308 310 311 312 312 313 314 313 313 313 314 314 313 312 312 313 313 313 315 317 318 320 322 324 326 328 328 329 330 330 329 328 328 327 326 326 327 327 327 326 324 322 321 323 326 329 330
256 257 258 257 256 254 254 255 257 258 255 252 253 256 259 265 271 276 278 277 275 274 275 276 276 278 281 283 285 288 292 295 297 297 297 299 302 305 307 309 310 312 312 313 314 313 313 313 314 313 313 312 312 312 312 313 314 316 318 320 323 325 327 328 328 329 331 332 331 329 329 328 327 327 327 328 327 325 323 322 322 324 327 330 331
254 255 256 256 255 254 253 254 256 257 255 253 253 255 258 263 269 274 277 278 277 277 277 277 276 276 278 280 283 286 291 294 295 295 296 299 303 305 307 309 311 312 312 313 313 313 313 313 313 313 313 312 312 312 312 313 314 316 318 320 323 326 327 328 329 330 332 333 331 330 329 329 329 329 329 329 327 325 323 322 323 324 327 330 331
252 253 254 255 255 254 253 253 255 256 256 253 253 255 258 261 267 272 275 277 279 280 280 279 277 276 276 277 280 284 290 292 291 292 296 299 302 305 308 310 311 312 312 312 312 312 313 313 313 314 313 312 311 311 311 313 314 316 318 321 324 326 327 328 329 330 332 334 333 331 330 330 330 331 331 330 328 325 323 322 323 325 328 331 333
249 251 253 254 254 254 253 254 255 256 257 255 254 255 258 260 265 269 273 277 280 283 283 282 279 276 274 275 278 283 287 288 288 291 295 299 303 307 310 310 310 310 310 312 312 312 312 313 313 313 312 311 311 311 311 313 315 317 319 321 324 326 326 327 329 331 333 335 334 333 331 329 329 331 332 331 329 326 324 323 323 326 329 333 335
248 250 253 254 253 253 253 254 255 257 258 256 254 255 257 260 264 268 273 278 282 283 285 286 282 276 272 272 276 281 284 285 286 290 295 300 305 308 309 309 308 309 310 311 312 312 312 313 312 311 310 310 310 311 312 314 315 317 319 322 324 326 326 328 330 331 333 335 335 334 332 330 330 331 332 332 330 328 325 324 325 328 331 334 335
247 249 252 253 253 253 254 254 255 257 258 257 256 255 257 260 264 268 273 278 282 285 288 289 286 276 269 270 275 279 281 282 285 290 296 302 307 309 308 307 307 309 310 311 312 313 313 312 311 310 309 309 310 311 312 313 315 317 319 322 324 325 326 328 330 331 332 335 336 335 333 332 331 331 332 333 331 329 327 326 327 329 332 335 336
246 248 251 253 254 255 255 255 256 257 258 260 260 259 259 261 265 269 274 278 281 285 288 292 290 278 268 268 272 276 279 281 285 291 297 302 307 308 307 306 307 308 309 310 311 313 313 312 311 310 309 309 310 311 311 313 315 317 320 322 324 325 326 328 330 331 333 336 337 335 335 334 333 332 332 332 333 332 329 328 329 331 333 336 337
Height
5873 5873 5873 5873 5872 5872 5871 5870 5869 5869 5868 5867 5866 5865 5864 5863 5862 5861 5860 5859 5859 5858 5857 5856 5855 5854 5854 5853 5852 5851 5850 5850 5850 5849 5849 5849 5849 5848 5847 5847 5846 5845 5844 5844 5843 5842 5841 5840 5839 5838 5837 5836 5835 5833 5832 5830 5829 5827 5825 5823 5821 5819 5817 5815 5813 5811 5809 5807 5805 5803 5801 5800 5798 5796 5794 5792 5790 5788 5786 5784 5782 5781 5779 5777 5775
5872 5872 5871 5871 5871 5870 5870 5869 5868 5867 5866 5865 5864 5863 5863 5862 5861 5860 5859 5858 5858 5857 5856 5855 5854 5853 5852 5851 5851 5850 5849 5848 5848 5848 5848 5848 5847 5847 5846 5845 5845 5844 5843 5843 5842 5841 5840 5839 5838 5837 5835 5834 5833 5832 5830 5828 5827 5825 5823 5821 5819 5817 5815 5813 5810 5808 5806 5804 5802 5800 5798 5796 5794 5793 5790 5788 5786 5784 5782 5780 5778 5776 5774 5772 5770
5871 5870 5870 5870 5869 5869 5868 5868 5867 5866 5865 5864 5863 5862 5861 5861 5860 5858 5858 5857 5856 5856 5855 5854 5853 5852 5851 5850 5849 5849 5848 5847 5847 5847 5847 5847 5846 5846 5845 5844 5844 5843 5842 5841 5841 5840 5839 5838 5836 5835 5834 5833 5831 5830 5828 5826 5824 5822 5820 5818 5816 5814 5812 5810 5808 5805 5803 5801 5799 5797 5795 5793 5791 5789 5787 5785 5782 5780 5777 5775 5773 5771 5768 5766 5765
5869 5869 5869 5868 5868 5867 5867 5866 5866 5865 5864 5863 5861 5861 5860 5859 5858 5857 5856 5855 5855 5854 5854 5853 5852 5851 5850 5849 5848 5847 5846 5846 5846 5845 5845 5845 5845 5844 5844 5843 5842 5842 5841 5840 5839 5838 5837 5836 5835 5833 5832 5831 5829 5828 5826 5824 5822 5820 5818 5816 5814 5812 5810 5807 5805 5803 5800 5798 5796 5794 5792 5790 5788 5786 5784 5782 5779 5776 5774 5771 5769 5767 5764 5762 5760
5868 5868 5867 5867 5866 5866 5865 5865 5864 5863 5862 5861 5860 5859 5858 5858 5857 5856 5855 5854 5853 5853 5852 5852 5851 5850 5848 5847 5846 5846 5845 5845 5844 5844 5844 5844 5844 5843 5842 5842 5841 5840 5840 5839 5838 5837 5836 5834 5833 5832 5830 5829 5827 5825 5823 5821 5819 5817 5815 5813 5811 5809 5807 5805 5802 5800 5797 5795 5793 5791 5789 5787 5785 5782 5780 5778 5775 5772 5770 5767 5765 5763 5760 5758 5755
5867 5866 5866 5865 5865 5864 5864 5863 5863 5862 5861 5860 5859 5858 5857 5856 5856 5855 5854 5853 5852 5851 5851 5850 5849 5848 5847 5846 5845 5844 5844 5843 5843 5843 5842 5842 5842 5841 5841 5840 5840 5839 5838 5837 5837 5835 5834 5832 5831 5829 5828 5826 5824 5823 5821 5819 5817 5815 5813 5811 5809 5807 5805 5802 5800 5797 5795 5792 5790 5788 5786 5784 5781 5779 5776 5774 5771 5769 5766 5763 5761 5759 5756 5753 5751
5866 5865 5864 5864 5864 5863 5862 5862 5861 5860 5859 5858 5857 5856 5856 5855 5854 5854 5853 5852 5851 5850 5849 5849 5848 5847 5846 5845 5844 5843 5842 5842 5841 5841 5841 5841 5840 5840 5839 5839 5838 5838 5837 5836 5835 5834 5832 5831 5829 5827 5825 5824 5822 5820 5819 5817 5815 5813 5811 5810 5808 5805 5803 5800 5797 5794 5792 5790 5787 5785 5783 5780 5778 5775 5773 5770 5767 5764 5762 5759 5756 5754 5752 5749 5747
5865 5864 5863 5863 5862 5862 5861 5860 5859 5859 5858 5857 5856 5855 5854 5854 5853 5852 5851 5850 5850 5849 5848 5847 5847 5845 5844 5843 5842 5841 5841 5840 5840 5839 5839 5839 5839 5838 5837 5837 5836 5836 5835 5834 5833 5832 5830 5829 5827 5825 5823 5822 5820 5818 5816 5815 5813 5811 5809 5808 5805 5803 5800 5797 5795 5792 5789 5787 5785 5782 5780 5777 5775 5772 5769 5766 5763 5760 5757 5754 5752 5750 5748 5745 5743
5863 5862 5862 5861 5861 5860 5859 5859 5858 5857 5857 5856 5855 5854 5853 5852 5851 5850 5850 5849 5849 5848 5847 5846 5845 5844 5843 5842 5841 5840 5839 5839 5838 5838 5838 5838 5837 5836 5836 5835 5834 5834 5833 5832 5831 5829 5828 5826 5825 5823 5821 5819 5818 5816 5814 5812 5810 5809 5807 5805 5803 5800 5797 5794 5791 5789 5786 5784 5782 5779 5776 5774 5771 5768 5765 5762 5759 5756 5753 5751 5748 5745 5743 5741 5739
5862 5861 5860 5859 5859 5858 5858 5857 5856 5856 5855 5855 5854 5853 5852 5851 5850 5849 5848 5848 5847 5847 5846 5845 5844 5843 5841 5840 5839 5838 5838 5837 5837 5836 5836 5836 5836 5835 5834 5833 5833 5832 5831 5830 5829 5827 5826 5824 5822 5820 5818 5817 5815 5814 5812 5810 5808 5807 5805 5803 5800 5797 5794 5791 5788 5786 5783 5781 5778 5776 5773 5770 5767 5764 5761 5758 5755 5752 5749 5747 5744 5742 5740 5738 5736
5860 5859 5858 5858 5857 5857 5856 5855 5855 5854 5854 5853 5852 5851 5850 5849 5848 5847 5847 5846 5846 5845 5845 5843 5842 5841 5840 5839 5838 5837 5836 5836 5835 5835 5835 5835 5834 5834 5833 5832 5831 5830 5829 5828 5827 5825 5824 5822 5820 5818 5816 5814 5813 5811 5809 5807 5806 5804 5802 5800 5797 5793 5790 5787 5785 5782 5780 5777 5775 5772 5769 5766 5763 5760 5757 5754 5751 5748 5746 5743 5740 5738 5736 5734 5732
5858 5858 5857 5856 5856 5855 5854 5854 5853 5853 5852 5851 5850 5849 5848 5848 5847 5846 5845 5845 5844 5844 5843 5842 5841 5840 5839 5837 5836 5836 5835 5834 5834 5833 5833 5833 5833 5832 5832 5831 5830 5829 5827 5826 5825 5823 5821 5819 5818 5816 5814 5812 5811 5809 5807 5805 5803 5801 5799 5796 5793 5790 5787 5784 5782 5779 5776 5773 5771 5768 5765 5762 5759 5756 5752 5749 5747 5744 5742 5739 5737 5734 5732 5730 5728
5857 5856 5855 5854 5853 5853 5852 5852 5851 5850 5850 5849 5847 5847 5846 5846 5845 5844 5844 5843 5842 5842 5841 5840 5839 5838 5837 5836 5835 5834 5833 5833 5832 5832 5831 5831 5831 5831 5830 5829 5828 5827 5826 5824 5823 5821 5819 5817 5815 5813 5812 5810 5808 5806 5804 5802 5800 5798 5795 5793 5790 5787 5784 5781 5778 5775 5773 5770 5767 5764 5761 5758 5755 5751 5748 5745 5743 5740 5738 5735 5733 5731 5728 5726 5724
5855 5854 5853 5852 5851 5850 5850 5849 5849 5848 5847 5846 5845 5844 5844 5844 5843 5843 5842 5841 5840 5840 5839 5838 5837 5837 5836 5835 5834 5833 5832 5831 5831 5830 5830 5830 5830 5829 5829 5828 5827 5826 5824 5823 5821 5819 5817 5815 5813 5811 5809 5808 5806 5804 5802 5800 5798 5795 5792 5789 5786 5783 5780 5777 5774 5772 5769 5766 5764 5760 5757 5754 5751 5747 5745 5742 5739 5736 5734 5732 5729 5727 5725 5722 5720
5853 5852 5851 5850 5849 5848 5848 5847 5847 5845 5844 5844 5843 5842 5842 5841 5841 5840 5840 5839 5838 5838 5837 5836 5835 5835 5834 5833 5832 5831 5830 5830 5829 5829 5828 5828 5828 5827 5827 5826 5825 5824 5822 5821 5819 5817 5815 5813 5811 5809 5807 5805 5803 5801 5799 5797 5795 5792 5789 5786 5783 5780 5777 5774 5771 5768 5766 5763 5760 5757 5753 5750 5747 5744 5741 5738 5735 5733 5730 5728 5726 5723 5721 5718 5716
5851 5850 5849 5848 5847 5846 5845 5845 5844 5843 5842 5841 5841 5840 5840 5840 5839 5838 5838 5837 5836 5836 5835 5834 5833 5833 5832 5831 5830 5829 5829 5828 5828 5827 5827 5826 5826 5826 5825 5824 5823 5822 5820 5819 5817 5815 5813 5811 5809 5807 5805 5803 5801 5799 5797 5795 5792 5789 5786 5783 5780 5777 5774 5771 5768 5765 5762 5759 5756 5753 5749 5746 5743 5740 5737 5734 5731 5729 5727 5724 5722 5719 5717 5714 5712
5849 5848 5847 5846 5845 5844 5843 5842 5842 5841 5840 5839 5839 5839 5838 5838 5837 5836 5836 5835 5835 5834 5833 5832 5831 5831 5830 5829 5828 5828 5827 5827 5826 5826 5825 5825 5824 5824 5823 5822 5821 5820 5818 5817 5815 5813 5811 5809 5807 5805 5803 5801 5799 5797 5794 5792 5789 5786 5783 5780 5777 5774 5771 5768 5765 5762 5759 5756 5752 5748 5745 5742 5739 5736 5733 5731 5728 5726 5723 5720 5718 5715 5713 5710 5708
5846 5845 5845 5844 5842 5841 5840 5840 5839 5838 5838 5837 5837 5837 5837 5836 5835 5835 5834 5833 5833 5832 5831 5831 5830 5829 5828 5827 5827 5826 5825 5825 5824 5824 5824 5823 5823 5822 5821 5820 5819 5818 5816 5815 5813 5811 5809 5807 5805 5803 5801 5799 5797 5794 5792 5789 5786 5783 5781 5778 5775 5771 5768 5765 5762 5759 5755 5752 5748 5744 5741 5738 5735 5733 5730 5727 5725 5722 5719 5717 5714 5711 5709 5706 5704
5843 5843 5842 5841 5840 5839 5838 5837 5837 5836 5836 5835 5835 5835 5835 5834 5834 5833 5832 5831 5831 5830 5830 5829 5828 5828 5827 5826 5825 5824 5824 5823 5822 5822 5822 5821 5820 5820 5819 5818 5817 5816 5814 5813 5811 5809 5806 5804 5802 5801 5798 5796 5794 5791 5789 5786 5783 5780 5777 5775 5772 5768 5765 5761 5758 5755 5752 5748 5744 5740 5737 5734 5732 5729 5727 5724 5721 5718 5716 5713 5710 5708 5705 5702 5699
5841 5840 5840 5839 5838 5837 5836 5835 5834 5834 5834 5833 5833 5833 5833 5832 5832 5831 5830 5830 5829 5828 5828 5827 5826 5826 5825 5825 5824 5823 5822 5822 5821 5821 5820 5820 5819 5818 5817 5816 5815 5814 5812 5810 5809 5806 5804 5802 5800 5798 5795 5793 5791 5788 5786 5783 5780 5778 5775 5772 5768 5765 5761 5758 5755 5752 5748 5744 5740 5737 5734 5731 5728 5726 5723 5720 5718 5715 5712 5709 5707 5704 5701 5698 5695
5838 5837 5837 5836 5835 5835 5834 5833 5832 5832 5832 5831 5831 5831 5830 5830 5829 5829 5828 5828 5827 5827 5826 5825 5824 5824 5824 5823 5822 5821 5821 5820 5820 5819 5819 5818 5817 5817 5815 5814 5813 5812 5810 5808 5806 5804 5802 5800 5797 5795 5792 5790 5788 5785 5782 5780 5777 5774 5771 5768 5765 5761 5758 5755 5751 5748 5744 5740 5736 5733 5730 5728 5725 5723 5720 5717 5714 5711 5708 5706 5703 5700 5697 5694 5691
5836 5835 5834 5834 5833 5832 5831 5830 5830 5829 5829 5829 5829 5829 5828 5828 5827 5827 5826 5826 5825 5825 5824 5823 5823 5822 5822 5821 5820 5820 5819 5819 5818 5818 5817 5816 5815 5815 5814 5812 5811 5810 5808 5806 5804 5801 5799 5797 5795 5792 5790 5787 5785 5782 5779 5776 5774 5771 5768 5765 5761 5758 5754 5751 5748 5744 5740 5737 5733 5730 5727 5725 5722 5719 5716 5713 5710 5707 5705 5702 5699 5696 5693 5690 5687
5833 5832 5832 5831 5830 5830 5829 5828 5827 5827 5827 5827 5827 5827 5826 5826 5825 5825 5824 5824 5823 5823 5822 5821 5821 5820 5820 5819 5819 5818 5818 5817 5816 5816 5815 5814 5813 5812 5811 5810 5809 5807 5805 5803 5801 5799 5797 5794 5792 5789 5787 5784 5781 5779 5776 5773 5770 5768 5765 5761 5758 5754 5751 5748 5744 5741 5737 5733 5730 5727 5724 5722 5719 5716 5713 5709 5706 5704 5701 5697 5694 5691 5688 5685 5682
5830 5830 5829 5829 5828 5827 5826 5826 5825 5825 5825 5825 5825 5824 5824 5824 5823 5823 5822 5822 5821 5821 5820 5819 5819 5818 5818 5817 5817 5816 5816 5815 5814 5814 5813 5812 5811 5810 5808 5807 5806 5805 5803 5800 5798 5796 5794 5791 5789 5786 5784 5781 5778 5775 5773 5771 5767 5764 5761 5758 5754 5751 5748 5744 5741 5737 5734 5730 5727 5724 5721 5718 5715 5712 5709 5706 5703 5699 5696 5693 5690 5687 5684 5681 5678
5827 5827 5827 5826 5826 5825 5824 5823 5823 5823 5823 5823 5823 5822 5822 5821 5821 5821 5820 5820 5819 5819 5818 5817 5817 5816 5816 5815 5815 5814 5814 5813 5812 5812 5811 5810 5809 5807 5806 5804 5803 5802 5800 5797 5795 5793 5791 5788 5786 5783 5781 5778 5775 5772 5770 5767 5764 5761 5758 5755 5751 5747 5744 5741 5737 5734 5730 5727 5724 5721 5718 5715 5712 5708 5705 5702 5699 5695 5692 5689 5686 5683 5680 5677 5674
5824 5824 5824 5824 5823 5822 5822 5821 5821 5821 5821 5821 5820 5820 5820 5819 5819 5819 5818 5818 5817 5817 5816 5815 5815 5814 5814 5813 5813 5812 5812 5811 5810 5810 5809 5808 5807 5805 5804 5802 5800 5799 5797 5794 5792 5790 5788 5785 5783 5780 5777 5774 5772 5769 5766 5764 5761 5757 5754 5751 5748 5744 5741 5737 5734 5730 5727 5723 5720 5717 5714 5711 5708 5705 5701 5698 5695 5691 5688 5685 5682 5679 5675 5672 5669
5821 5821 5822 5822 5821 5820 5820 5819 5819 5819 5818 5818 5818 5818 5818 5817 5817 5817 5817 5816 5816 5815 5814 5813 5812 5812 5811 5811 5810 5810 5809 5809 5808 5808 5807 5805 5804 5803 5801 5799 5798 5796 5793 5791 5789 5787 5785 5782 5780 5777 5774 5771 5768 5765 5763 5761 5758 5754 5751 5748 5744 5741 5737 5734 5730 5727 5723 5720 5717 5714 5711 5707 5704 5701 5697 5694 5691 5687 5684 5681 5677 5674 5671 5668 5665
5818 5819 5819 5819 5818 5818 5818 5817 5817 5816 5816 5816 5816 5815 5815 5815 5815 5815 5814 5814 5813 5813 5812 5811 5810 5809 5809 5808 5808 5807 5807 5806 5806 5805 5804 5803 5802 5800 5799 5797 5795 5793 5790 5788 5786 5784 5782 5780 5777 5774 5771 5768 5765 5762 5760 5757 5754 5751 5748 5744 5741 5737 5734 5730 5727 5723 5720 5717 5714 5711 5707 5704 5700 5697 5694 5690 5687 5683 5680 5676 5673 5670 5666 5663 5660
5816 5816 5817 5816 5816 5815 5815 5815 5814 5814 5814 5813 5813 5813 5813 5813 5812 5812 5812 5811 5811 5810 5809 5809 5808 5807 5806 5805 5805 5805 5804 5804 5803 5802 5801 5800 5799 5797 5796 5794 5792 5789 5787 5785 5783 5781 5778 5776 5774 5771 5768 5765 5762 5759 5757 5754 5751 5748 5745 5741 5737 5734 5730 5727 5723 5720 5716 5713 5710 5707 5703 5700 5697 5693 5690 5686 5682 5679 5675 5672 5669 5665 5662 5659 5655
5813 5813 5814 5814 5813 5813 5812 5812 5812 5811 5811 5811 5810 5810 5810 5810 5809 5809 5809 5809 5808 5808 5807 5806 5805 5805 5804 5803 5803 5803 5802 5801 5801 5800 5799 5797 5796 5795 5793 5791 5789 5787 5784 5782 5780 5778 5776 5773 5771 5768 5765 5762 5759 5756 5753 5751 5748 5744 5741 5737 5734 5730 5727 5723 5720 5716 5713 5710 5706 5703 5699 5696 5693 5689 5685 5682 5678 5675 5671 5668 5664 5661 5657 5654 5650
5810 5810 5811 5811 5810 5810 5809 5809 5809 5809 5808 5808 5807 5807 5807 5807 5807 5807 5806 5806 5806 5805 5805 5804 5803 5802 5802 5801 5800 5800 5799 5799 5798 5797 5796 5795 5793 5791 5790 5788 5786 5784 5781 5779 5777 5776 5773 5770 5768 5765 5762 5758 5755 5752 5749 5747 5744 5741 5737 5734 5730 5727 5723 5720 5716 5713 5710 5706 5703 5699 5696 5692 5688 5685 5681 5677 5674 5670 5666 5663 5660 5656 5653 5649 5646
5807 5807 5807 5808 5807 5807 5807 5806 5806 5806 5805 5805 5805 5805 5805 5805 5804 5804 5804 5804 5803 5803 5802 5802 5801 5800 5799 5799 5798 5797 5797 5796 5795 5794 5793 5792 5790 5788 5787 5785 5783 5781 5779 5776 5774 5772 5770 5767 5764 5761 5758 5755 5752 5749 5746 5743 5741 5737 5734 5730 5727 5723 5719 5716 5713 5710 5706 5703 5699 5695 5692 5688 5684 5681 5677 5673 5669 5665 5662 5659 5655 5651 5648 5644 5641
5803 5804 5804 5804 5804 5804 5804 5804 5803 5803 5803 5802 5802 5802 5802 5802 5802 5801 5801 5801 5801 5800 5800 5799 5799 5798 5797 5796 5795 5795 5794 5793 5793 5792 5790 5789 5787 5785 5784 5782 5780 5778 5776 5773 5771 5769 5767 5764 5761 5758 5755 5752 5748 5745 5743 5740 5737 5734 5730 5727 5723 5720 5716 5713 5710 5707 5703 5699 5695 5692 5688 5684 5680 5677 5673 5669 5665 5661 5658 5654 5650 5647 5643 5640 5636
5799 5800 5801 5801 5801 5801 5801 5801 5801 5800 5800 5800 5800 5800 5800 5799 5799 5799 5799 5798 5798 5798 5797 5797 5796 5795 5794 5793 5792 5792 5791 5791 5790 5789 5787 5786 5784 5783 5781 5779 5777 5775 5773 5770 5768 5766 5764 5761 5758 5755 5752 5748 5745 5742 5739 5737 5734 5730 5727 5723 5720 5716 5713 5709 5706 5703 5699 5696 5692 5688 5684 5680 5677 5672 5668 5664 5660 5657 5653 5650 5646 5642 5639 5635 5632
5795 5796 5797 5798 5798 5798 5798 5798 5798 5798 5798 5797 5797 5797 5797 5797 5797 5796 5796 5796 5795 5795 5794 5794 5793 5792 5791 5790 5789 5789 5788 5788 5787 5786 5785 5783 5781 5780 5778 5776 5774 5772 5770 5767 5765 5763 5761 5758 5755 5752 5748 5745 5742 5739 5736 5733 5730 5727 5724 5720 5716 5713 5709 5706 5702 5699 5695 5692 5688 5684 5680 5677 5673 5668 5664 5660 5656 5653 5649 5645 5642 5638 5634 5631 5628
5791 5792 5794 5794 5795 5795 5795 5794 5795 5795 5795 5795 5794 5794 5794 5794 5794 5794 5793 5793 5793 5792 5792 5791 5790 5789 5788 5787 5787 5786 5786 5785 5784 5783 5782 5780 5779 5777 5775 5773 5771 5769 5767 5764 5762 5760 5757 5754 5751 5748 5745 5742 5739 5736 5733 5730 5727 5724 5720 5717 5713 5709 5706 5702 5699 5695 5692 5688 5684 5680 5676 5672 5668 5664 5660 5656 5652 5649 5645 5641 5638 5634 5630 5627 5624
5787 5789 5790 5790 5791 5792 5791 5791 5792 5792 5792 5792 5792 5791 5791 5791 5791 5791 5790 5790 5790 5789 5789 5788 5787 5786 5786 5785 5784 5784 5783 5782 5781 5780 5779 5778 5776 5774 5772 5770 5768 5766 5763 5761 5759 5756 5753 5751 5748 5745 5741 5738 5736 5733 5730 5727 5724 5720 5717 5713 5710 5706 5702 5699 5695 5692 5688 5684 5680 5676 5672 5668 5664 5661 5657 5653 5649 5645 5641 5638 5634 5630 5626 5623 5620
5784 5785 5786 5787 5788 5788 5788 5788 5789 5789 5789 5789 5789 5788 5788 5788 5788 5788 5788 5787 5787 5786 5786 5785 5784 5784 5783 5782 5782 5781 5780 5779 5778 5777 5776 5774 5772 5770 5769 5767 5765 5763 5761 5758 5756 5753 5750 5747 5744 5741 5738 5735 5733 5730 5727 5724 5721 5717 5713 5709 5705 5702 5699 5696 5692 5688 5685 5680 5676 5671 5667 5664 5661 5657 5653 5649 5645 5641 5637 5634 5630 5626 5623 5619 5616
5780 5781 5782 5783 5784 5784 5784 5784 5785 5786 5786 5786 5786 5785 5785 5785 5785 5785 5785 5784 5784 5783 5783 5782 5781 5781 5780 5780 5779 5778 5777 5776 5775 5774 5773 5771 5769 5767 5765 5763 5762 5760 5758 5755 5752 5749 5746 5743 5740 5737 5735 5732 5730 5727 5724 5721 5717 5713 5709 5705 5702 5698 5695 5691 5688 5684 5681 5676 5672 5668 5663 5660 5657 5653 5649 5645 5641 5638 5634 5630 5627 5624 5620 5617 5613
5777 5777 5778 5779 5780 5780 5781 5781 5782 5783 5783 5783 5783 5782 5782 5781 5782 5782 5781 5781 5780 5780 5779 5779 5778 5778 5777 5777 5776 5775 5774 5773 5772 5771 5770 5768 5766 5764 5762 5760 5758 5757 5754 5752 5748 5745 5743 5740 5737 5734 5731 5729 5726 5723 5720 5717 5714 5710 5706 5702 5698 5695 5691 5687 5684 5680 5676 5672 5668 5664 5659 5655 5652 5650 5646 5642 5638 5634 5630 5627 5624 5621 5617 5613 5609
5773 5773 5774 5775 5776 5776 5777 5778 5779 5780 5780 5780 5779 5779 5778 5778 5779 5778 5778 5778 5777 5777 5776 5776 5775 5775 5774 5773 5773 5772 5771 5770 5769 5768 5767 5765 5763 5761 5759 5757 5755 5753 5751 5748 5745 5742 5739 5736 5733 5731 5728 5725 5723 5720 5717 5714 5710 5707 5703 5699 5696 5692 5688 5684 5680 5676 5672 5668 5664 5660 5656 5652 5649 5646 5643 5639 5635 5631 5627 5623 5620 5617 5614 5610 5606
5769 5769 5770 5771 5772 5772 5773 5774 5775 5776 5776 5776 5776 5775 5775 5775 5775 5775 5775 5774 5774 5773 5773 5772 5772 5771 5771 5770 5770 5769 5768 5767 5766 5765 5763 5761 5759 5758 5756 5754 5752 5750 5747 5744 5742 5739 5736 5732 5730 5727 5725 5722 5719 5717 5714 5711 5707 5704 5701 5697 5693 5689 5685 5681 5677 5673 5669 5665 5661 5656 5652 5649 5646 5643 5640 5636 5632 5628 5624 5620 5616 5613 5610 5606 5602
5765 5766 5766 5766 5767 5768 5769 5770 5772 5772 5773 5773 5772 5772 5772 5772 5771 5772 5772 5771 5770 5770 5769 5769 5768 5768 5767 5767 5766 5766 5765 5764 5763 5761 5760 5758 5756 5755 5753 5751 5748 5746 5744 5741 5738 5735 5732 5729 5726 5724 5721 5719 5716 5713 5711 5708 5705 5701 5698 5694 5690 5686 5682 5678 5673 5670 5666 5662 5658 5654 5650 5646 5643 5640 5637 5633 5629 5625 5621 5617 5613 5610 5607 5603 5599
5761 5762 5762 5762 5763 5764 5765 5767 5768 5769 5769 5769 5769 5768 5768 5768 5768 5768 5768 5767 5767 5766 5766 5765 5765 5764 5764 5763 5763 5762 5761 5760 5759 5758 5756 5755 5753 5751 5749 5747 5745 5743 5740 5737 5734 5731 5728 5726 5723 5721 5718 5716 5713 5710 5708 5705 5702 5699 5695 5692 5688 5683 5679 5675 5670 5666 5663 5659 5655 5651 5648 5644 5641 5638 5634 5630 5626 5622 5618 5614 5610 5606 5603 5600 5595
5757 5758 5758 5758 5759 5760 5761 5762 5764 5765 5765 5765 5765 5765 5764 5765 5765 5765 5764 5764 5763 5763 5762 5762 5762 5761 5761 5760 5759 5759 5758 5757 5756 5754 5753 5751 5750 5748 5746 5744 5741 5739 5736 5733 5731 5728 5725 5723 5720 5718 5715 5713 5710 5708 5705 5702 5699 5696 5692 5689 5685 5681 5676 5672 5667 5663 5659 5656 5652 5648 5645 5642 5638 5635 5631 5627 5623 5619 5615 5611 5607 5603 5600 5596 5592
5754 5754 5754 5754 5755 5756 5757 5758 5760 5761 5761 5761 5761 5761 5761 5761 5762 5761 5761 5760 5760 5760 5759 5759 5758 5758 5757 5757 5756 5755 5754 5753 5752 5751 5750 5748 5746 5744 5742 5740 5738 5735 5732 5730 5727 5725 5722 5720 5717 5715 5712 5710 5707 5705 5702 5699 5696 5693 5689 5686 5682 5678 5673 5669 5664 5660 5656 5653 5649 5646 5643 5640 5636 5632 5628 5625 5621 5617 5612 5608 5604 5600 5597 5593 5589
5750 5750 5750 5750 5751 5752 5753 5754 5755 5756 5757 5757 5757 5757 5757 5758 5758 5758 5757 5757 5757 5757 5756 5756 5755 5755 5754 5754 5753 5752 5751 5750 5749 5748 5746 5745 5743 5741 5739 5736 5734 5731 5729 5726 5724 5722 5719 5716 5714 5711 5709 5707 5704 5702 5699 5696 5693 5690 5686 5683 5679 5675 5670 5666 5661 5657 5653 5650 5647 5643 5640 5637 5634 5630 5626 5622 5618 5614 5610 5606 5602 5598 5594 5590 5585
5745 5746 5746 5746 5747 5748 5749 5750 5751 5752 5753 5753 5753 5754 5754 5754 5755 5754 5753 5753 5754 5753 5753 5752 5751 5751 5751 5750 5749 5748 5748 5747 5745 5744 5743 5741 5739 5737 5735 5733 5730 5728 5725 5723 5721 5718 5716 5713 5711 5708 5706 5704 5701 5698 5696 5693 5690 5687 5683 5680 5676 5672 5667 5663 5658 5654 5650 5647 5644 5640 5637 5634 5631 5628 5624 5620 5616 5612 5608 5604 5599 5595 5592 5588 5583
5740 5742 5742 5742 5742 5744 5745 5746 5747 5748 5749 5749 5749 5750 5750 5750 5751 5750 5750 5750 5750 5750 5749 5748 5747 5747 5747 5746 5746 5745 5744 5743 5742 5741 5739 5738 5736 5733 5731 5729 5727 5724 5722 5720 5718 5715 5713 5710 5707 5705 5703 5701 5698 5695 5692 5690 5687 5684 5680 5677 5673 5669 5665 5660 5656 5651 5647 5644 5641 5638 5635 5632 5629 5625 5622 5618 5614 5610 5606 5602 5597 5593 5589 5585 5580
5736 5738 5738 5737 5738 5739 5741 5742 5743 5744 5745 5745 5745 5746 5747 5747 5747 5747 5747 5747 5747 5746 5745 5744 5743 5743 5743 5743 5742 5741 5740 5740 5739 5738 5736 5734 5732 5730 5728 5725 5723 5721 5719 5717 5715 5712 5710 5707 5704 5702 5700 5697 5695 5692 5689 5686 5684 5681 5677 5674 5670 5666 5662 5657 5653 5649 5645 5642 5639 5635 5632 5629 5626 5622 5619 5616 5612 5608 5604 5599 5595 5591 5587 5582 5577
5733 5734 5733 5733 5735 5736 5737 5738 5739 5740 5741 5740 5741 5742 5743 5743 5743 5743 5743 5743 5742 5741 5740 5740 5739 5738 5738 5738 5738 5737 5737 5736 5735 5734 5732 5730 5728 5726 5724 5722 5720 5718 5716 5714 5711 5709 5706 5704 5701 5699 5697 5694 5692 5689 5686 5683 5681 5678 5675 5671 5668 5663 5659 5655 5651 5647 5643 5640 5637 5634 5630 5627 5623 5619 5616 5614 5611 5607 5602 5597 5593 5589 5585 5580 5575